User: anonymous   Login
Location: Unspecified
(0.0000°N, 0.0000°E)
Time: 00:06:37
(UTC+00:00)
Language:

DOUBLE STAR - Orbit

View from above orbital plane
View from above orbital plane
View from above satellite
View from above satellite

Ground track
Ground track

The orbit data is extracted from the following two-line orbital elements,

1 28382U 04029A   18112.22061625 +.00000151 +00000-0 -16718-3 0  9999
2 28382 087.5487 291.9307 7161112 038.0029 355.3286 02.29780899108629
Epoch (UTC): 22 April 2018 05:17:41
Eccentricity: 0.7161112
inclination: 87.5487°
perigee height: 508 km
apogee height: 35251 km
right ascension of ascending node: 291.9307°
argument of perigee: 38.0029°
revolutions per day: 2.29780899
mean anomaly at epoch: 355.3286°
orbit number at epoch: 10862

The dashed part of the orbit path shows where the satellite is in the earth's shadow,  

DLR